Location: Colorado Springs
(38.8340°N, 104.8210°W)
Time: 08:50:53
(UTC-06:00)

ISS - Pass Details

Date: 10 October 2017
Orbit: 401 x 408 km, 51.6° (Epoch: 18 October)

Event Time Altitude Azimuth Distance (km) Brightness Sun altitude
Rises 20:50:31 0° 310° (NW) 2,326 1.0 -28.5°
Reaches altitude 10° 20:52:36 10° 312° (NW) 1,465 -0.3 -28.8°
Enters shadow 20:53:09 14° 313° (NW) 1,246 -0.7 -29.0°
